Weather in Lebedevka

Russia / Novosibirsk Oblast     54°40′15″N   83°14′01″E
temp.,
°C
wind,
m/s
gust,
m/s
humid.,
%
clouds,
%
prec.,
mm/h
press.,
hPa
HPBL,
m
25 february, thu
thu2501:00−16wsw81777100 2.8 1012693
04:00−21wsw499339 0.0 1015168
07:00−23wsw4108820 0.0 1017209
10:00−24s4109313 0.0 1019303
13:00−19ssw7118423 0.0 10191132
16:00−19sw91584100 0.1 10201721
19:00−19sw61391100 0.1 10211242
22:00−21ssw51291100 0.0 1022749
26 february, fri
fri2601:00−21sw61189100 0.0 1022791
04:00−22sw61291100 0.0 1023786
07:00−22sw61194100 0.1 1026877
10:00−24sw81292100 0.1 1028866
13:00−22wsw81290100 0.3 10311113
16:00−23wsw71289100 0.1 1033906
19:00−26wsw4996100 0.1 1035318
22:00−28sw4998100 0.1 1037225
27 february, sat
sat2701:00−29sw3997100 0.1 1037228
04:00−29ssw3698100 0.0 1038146
07:00−26ssw3897100 0.1 1038366
10:00−25sw4894100 0.1 1038494
13:00−23sw4792100 0.1 1038556
16:00−22sw4691100 0.1 1038609
19:00−25ssw3495100 0.1 103851
22:00−28ssw339451 0.0 103924
28 february, sun
sun2801:00−29s239426 0.0 103919
04:00−29sse239731 0.0 103819
07:00−29se339747 0.0 103846
10:00−25sse499552 0.0 1037223
13:00−18sse599165 0.0 1034369
16:00−14sse61088100 0.0 1031594
19:00−11sse51288100 0.0 1028632
22:00−10s71394100 0.7 1024816
1 march, mon
mon101:00−9s61394100 2.3 1021897
04:00−8s61394100 2.1 1017745
07:00−7s61395100 4.4 1015781
10:00−5ssw71395100 1.5 1013879
13:00−2sw101693100 2.9 1012914
16:00−1sw91593100 0.7 10121046
19:00−1sw81496100 1.4 1012809
22:00−1sw81496100 0.9 1013849